Flag for U.S.A. Weather past 2 weeks in New Bedford, Massachusetts, U.S.A.

Now
68 °F

Thundershowers. Fog.


Feels Like: 68 °F
Forecast: 65 / 76 °F
Wind: 8 mph from East

Location: New Bedford Regional Airport

Current Time: Jul 1, 2015 at 12:01:19 PM

Latest Report: Jul 1, 2015 at 8:48 AM


Visibility: 5 mi

Pressure: 29.83 "Hg

Humidity: 94%

Dew point: 66 °F

Location of New BedfordLocation

Historic Weather in New Bedford — Graph

°F

New Bedford temperature yesterday

Maximum temperature yesterday: 80 °F (at 11:53 AM)
Minimum temperature yesterday: 56 °F (at 4:02 AM)
Average temperature yesterday: 70 °F

Past Weeks' High & Low Weather Summary

 TemperatureHumidityPressure
High84 °F (Jun 22, 12:53 PM)100% (Jun 22, 12:53 AM)30.17 "Hg (Jun 22, 12:53 AM)
Low46 °F (Jun 18, 4:53 AM)30% (Jun 18, 12:53 PM)29.61 "Hg (Jun 21, 5:53 PM)
Average68 °F75%29.93 "Hg
* Reported Jun 16 8:53 AM — Jul 1 8:48 AM, New Bedford, Weather by CustomWeather, © 2015

Note: Actual official high and low records may vary slightly from our data, if they occured in-between our weather recording intervals... More about our weather records

Advertising

New Bedford weather history for previous 24 hours

 ConditionsComfort  
Time TempWeatherWind HumidityBarometerVisibility
8:48 AM
Wed, Jul 1
68 °FThundershowers. Fog.8 mph94%29.83 "Hg5 mi
7:53 AM68 °FThunderstorms. Cloudy.5 mph90%29.85 "Hg10 mi
6:53 AM69 °FMostly cloudy.9 mph84%29.85 "Hg10 mi
5:53 AM68 °FClear.7 mph87%29.84 "Hg10 mi
4:53 AM67 °FClear.8 mph90%29.87 "Hg10 mi
3:53 AM66 °FClear.6 mph93%29.88 "Hg10 mi
2:53 AM66 °FClear.6 mph90%29.89 "Hg10 mi
1:53 AM66 °FClear.6 mph90%29.92 "Hg10 mi
11:53 PM
Tue, Jun 30
67 °FClear.8 mph87%29.95 "Hg10 mi
10:53 PM68 °FClear.8 mph84%29.96 "Hg10 mi
9:53 PM68 °FClear.6 mph87%29.98 "Hg10 mi
8:53 PM69 °FSunny.7 mph84%29.96 "Hg10 mi
7:53 PM71 °FSunny.8 mph78%29.95 "Hg10 mi
6:53 PM74 °FSunny.9 mph60%29.95 "Hg10 mi
5:53 PM77 °FSunny.13 mph48%29.95 "Hg10 mi
4:53 PM78 °FSunny.12 mph48%29.96 "Hg10 mi
3:53 PM80 °FSunny.14 mph47%29.96 "Hg10 mi
2:53 PM80 °FSunny.15 mph52%29.98 "Hg10 mi
1:53 PM80 °FSunny.20 mph51%29.98 "Hg10 mi
12:53 PM80 °FSunny.14 mph52%29.98 "Hg10 mi
Weather by CustomWeather, © 2015

See weather overviewHow to use our weather pages